EDT,Max TemperatureF,Mean TemperatureF,Min TemperatureF,Max Dew PointF,MeanDew PointF,Min DewpointF,Max Humidity, Mean Humidity, Min Humidity, Max Sea Level PressureIn, Mean Sea Level PressureIn, Min Sea Level PressureIn, Max VisibilityMiles, Mean VisibilityMiles, Min VisibilityMiles, Max Wind SpeedMPH, Mean Wind SpeedMPH, Max Gust SpeedMPH,PrecipitationIn, CloudCover, Events, WindDirDegrees
2012-5-1,78,72,66,64,63,57,88,75,61,30.20,30.12,30.05,10,10,7,22,12,33,0.00,4,Rain,201
2012-5-2,87,74,62,68,63,57,88,70,46,30.11,30.08,30.05,10,10,7,14,10,18,0.00,1,,271
2012-5-3,73,66,60,63,59,57,94,84,65,30.16,30.10,30.06,10,7,1,12,5,,0.00,4,,65
2012-5-4,84,72,60,68,65,59,94,76,51,30.07,29.99,29.90,10,7,0,10,4,,0.00,3,Fog,194
2012-5-5,82,73,64,66,63,59,94,69,51,29.90,29.86,29.81,10,10,4,10,4,,0.00,3,Rain,40
2012-5-6,69,64,60,63,59,54,94,81,68,30.05,29.95,29.84,10,9,2,18,12,25,0.00,5,,39
2012-5-7,68,64,59,55,53,48,82,67,49,30.11,30.06,30.01,10,10,10,21,13,26,0.00,1,,69
2012-5-8,77,66,55,61,55,50,94,65,46,30.07,30.00,29.92,10,10,10,17,6,22,0.00,0,,170
2012-5-9,78,73,68,68,64,59,88,73,57,29.93,29.77,29.60,10,10,2,21,10,26,0.00,2,Rain,207
2012-5-10,71,66,60,63,52,46,88,63,46,29.96,29.75,29.59,10,10,3,22,7,29,0.00,3,Rain,358
2012-5-11,69,60,51,52,44,36,82,53,30,30.26,30.11,29.95,10,10,10,13,5,17,0.00,2,,53
2012-5-12,77,64,51,52,45,39,76,47,27,30.35,30.30,30.26,10,9,4,14,5,16,0.00,0,,199
2012-5-13,77,72,66,55,53,46,64,52,41,30.31,30.26,30.20,10,8,4,18,12,22,0.00,1,,195
2012-5-14,77,73,69,64,59,54,78,62,50,30.19,30.12,30.06,10,4,1,18,13,22,0.00,2,,179
2012-5-15,77,72,68,68,66,63,88,81,69,30.06,30.01,29.93,10,8,1,21,13,25,0.00,4,Rain,189
2012-5-16,78,73,68,68,66,63,94,82,69,30.00,29.96,29.91,10,10,7,16,8,21,0.00,2,Rain,199
2012-5-17,75,70,64,68,63,59,94,86,69,30.03,29.98,29.92,10,8,1,18,6,25,0.00,5,Rain,60
2012-5-18,69,64,60,59,55,52,88,71,56,30.08,30.03,29.98,10,10,10,25,16,34,0.00,4,,29
2012-5-19,68,64,59,55,50,37,82,63,33,30.11,30.06,30.03,10,10,10,18,15,26,0.00,4,,20
2012-5-20,66,63,60,63,59,52,94,86,68,30.06,30.03,30.01,10,6,1,16,11,24,0.00,8,Rain,1
2012-5-21,75,68,60,64,62,59,94,82,65,30.04,29.98,29.90,10,10,1,14,5,18,0.00,1,,73
2012-5-22,78,69,60,68,62,59,94,81,61,29.91,29.88,29.83,10,9,1,13,3,21,0.00,2,Rain,203
2012-5-23,78,73,68,68,66,63,94,77,57,30.01,29.92,29.85,10,10,7,17,9,22,0.00,1,,190
2012-5-24,80,71,62,70,65,61,94,74,54,30.10,30.06,30.00,10,10,10,16,7,24,0.00,1,Rain,136
2012-5-25,78,74,69,70,67,64,94,80,65,30.15,30.11,30.07,10,10,7,16,7,20,0.00,3,Rain,105
2012-5-26,78,74,69,68,66,64,88,76,65,30.16,30.13,30.09,10,10,10,14,10,21,0.00,1,,77
2012-5-27,80,74,69,70,69,66,94,78,65,30.17,30.13,30.10,10,10,4,15,9,20,0.00,3,,137
2012-5-28,82,78,73,72,69,68,88,78,65,30.14,30.08,30.04,10,10,2,20,11,18,0.00,2,Rain,198
2012-5-29,84,78,73,72,70,68,88,79,62,30.05,29.97,29.88,10,10,7,22,11,26,0.00,2,Rain,209
2012-5-30,77,72,66,72,67,63,94,83,73,29.88,29.74,29.56,10,7,0,30,12,44,0.00,5,Rain,201
2012-5-31,87,78,68,70,63,55,88,61,33,29.91,29.83,29.72,10,10,10,14,8,21,0.00,1,,278